Regional Weather Roundup
Issued by NWS Sioux Falls, SD

Home | Current Version | Previous Version | Text Only | Print | Product List | Glossary Off
Versions: 1 2 3 4 5 6 7 8 9 10 11 12 13 14 15 16 17 18 19 20 21 22 23 24 25 26 27 28 29 30 31 32 33 34 35 36 37 38 39 40 41 42 43 44 45 46 47 48 49 50

000
ASUS43 KFSD 190410
RWRFSD

WEATHER ROUNDUP FOR SE SOUTH DAKOTA/SW MINNESOTA/NW IOWA
NATIONAL WEATHER SERVICE SIOUX FALLS SD
1100 PM CDT THU SEP 18 2014

NOTE: "FAIR" INDICATES FEW OR NO CLOUDS BELOW 12,000 FEET WITH NO
SIGNIFICANT WEATHER AND OR OBSTRUCTIONS TO VISIBILITY.


SDZ038>040-050-052>070-190500-
SOUTHEAST SOUTH DAKOTA

CITY           SKY/WX    TMP DP  RH WIND       PRES   REMARKS
CHAMBERLAIN    CLEAR     62  59  90 SE9       29.79S
HURON          PTCLDY    65  57  75 S15G23    29.81F
MADISON        FAIR      59  59 100 S12G17    29.89F
MITCHELL       PTCLDY    67  58  72 S17       29.84F
SIOUX FALLS    PTCLDY    64  55  72 S15G24    29.91S
WINNER         FAIR      68  62  81 S18G29    29.78F
YANKTON        CLOUDY    64  57  77 SE14G20   29.90F
$$

MNZ071-072-080-081-089-090-097-098-190500-
SOUTHWEST MINNESOTA

CITY           SKY/WX    TMP DP  RH WIND       PRES   REMARKS
FAIRMONT       CLEAR     55  43  62 S9        29.99F
JACKSON        CLEAR     61  50  67 S10G18    29.98F
LUVERNE        PTCLDY    61  55  82 S9        29.93F
MARSHALL       MOCLDY    64  52  63 S16       29.90F
MONTEVIDEO     PTCLDY    63  52  67 S9        29.90F
PIPESTONE      PTCLDY    61  55  82 S15       29.92F
REDWOOD FALLS  MOCLDY    63  48  58 S13       29.94R
TRACY          CLOUDY    63  53  71 S13G20    29.93F
WINDOM         CLEAR     61  50  67 S12       29.96F
WORTHINGTON    PTCLDY    61  52  72 S13G20    29.97S
$$

IAZ001>003-012>014-020>022-031-032-NEZ013-014-SDZ071-190500-
NORTHWEST IOWA

CITY           SKY/WX    TMP DP  RH WIND       PRES   REMARKS
CHEROKEE       PTCLDY    59  55  87 S9        29.98F
DENISON        CLEAR     59  57  94 SE12      29.98F
ESTHERVILLE    PTCLDY    60  50  69 S16G23    29.99F
LE MARS          N/A     61  55  82 S7        29.96R
ORANGE CITY    PTCLDY    63  54  72 SE9       29.96S
SHELDON        PTCLDY    59  54  82 SE13G20   29.95F
SIOUX CITY     PTCLDY    62  55  77 SE10      29.95R
SPENCER        PTCLDY    59  51  75 SE10      29.99S
STORM LAKE     CLEAR     57  57 100 S12       30.00S
$$

ABBREVIATIONS USED IN REMARKS
   TC - TEMPERATURE IN CELSIUS
  WCI - WIND CHILL INDEX
   HX - HEAT INDEX
  VSB - VISIBILITY



USA.gov is the U.S. government's official web portal to all federal, state and local government web resources and services.